www.pogodaiklimat.ru

Погода и климат >> Архив погоды >> Канада >> Нунавут >> Ранкин-Инлет


ПОГОДА в Ранкин-Инлете

  • Прогноз погоды в Ранкин-Инлете
  • Монитор погоды в Ранкин-Инлете

АРХИВ ПОГОДЫ в Ранкин-Инлете

Время (UTC), дата Ветер
(напр.,м/с)
 
Видим.   Явления Облачность Т
(С)
Тd
(С)
f
(%)
Тe
(С)
Тes
(С)
Комфортность P
(гПа)
Po
(гПа)
Тmin
(С)
Tmax
(С)
R
(мм)
R24
(мм)
S
(см)
21 14.03 СВ 3 4800 м 10/10 1500 м
[]
-17.3 -20.5 76 -24 -24 1019.4 1015.0
00 15.03 С 4 9000 м слаб. снег 9/5 600 м
[Sc Ac As]
-18.4 -21.6 76 -27 -27 1019.8 1015.4 -19.3 -16.9 0.4 43
03 15.03 С 6 24 км ясно -25.1 -28.2 75 -37 -37 опасность
обморожения
1019.9 1015.5
06 15.03 С 6 24 км ледяные иглы {снег} ясно -27.2 -30.6 73 -40 -40 опасность
обморожения
1019.4 1014.9 -27.4 -16.9 0.0 5
09 15.03 С 6 24 км 10/10 1000 м
[]
-23.6 -26.8 75 -35 -35 опасность
обморожения
1019.0 1014.6
12 15.03 С 7 16 км ледяные иглы {снег} 10/10 1000 м
[Sc]
-24.3 -27.6 74 -37 -37 опасность
обморожения
1018.9 1014.5 -27.6 -16.9 0.0 43
15 15.03 С 6 24 км 3/3 1500 м
[]
-26.0 -29.6 72 -39 -38 опасность
обморожения
1019.1 1014.6
18 15.03 С 8 24 км позёмок {снег} 4/0 2000 м
[Ac trans]
-23.7 -27.7 70 -37 -36 опасность
обморожения
1019.9 1015.4 -27.6 -23.2 0.0 43
21 15.03 С 9 24 км ясно -23.8 -27.9 69 -38 -38 опасность
обморожения
1020.6 1016.1
00 16.03 С 9 24 км позёмок ясно -26.4 -30.4 69 -42 -42 опасность
обморожения
1021.6 1017.1 -27.6 -23.2
03 16.03 С 10 24 км ясно -29.5 -33.5 68 -46 -46 опасность
обморожения
1022.2 1017.8
06 16.03 С 4 24 км ясно -31.3 -35.6 66 -43 -43 опасность
обморожения
1023.3 1018.9 -31.5 -23.2 41
09 16.03 С 8 24 км ясно -31.8 -36.1 66 -48 -48 опасность
обморожения
1024.2 1019.7
12 16.03 С 7 24 км ясно -32.7 -37.1 65 -48 -48 опасность
обморожения
1025.2 1020.7 -32.7 -23.2 43
15 16.03 С 5 24 км ясно -31.1 -35.6 64 -44 -43 опасность
обморожения
1025.6 1021.1
18 16.03 С 5 24 км ясно -27.7 -32.4 64 -40 -38 опасность
обморожения
1025.6 1021.1 -33.3 -27.7
21 16.03 С 7 24 км ясно -26.1 -30.6 66 -39 -39 опасность
обморожения
1025.7 1021.2
00 17.03 СЗ 3 24 км 1/0
[]
-28.1 -32.4 66 -37 -37 опасность
обморожения
1026.2 1021.7 -33.3 -26.0
03 17.03 С 3 24 км ясно -30.2 -34.1 69 -39 -39 опасность
обморожения
1025.3 1020.8
06 17.03 С 3 24 км ясно -31.2 -34.9 70 -40 -40 опасность
обморожения
1024.6 1020.1 -33.3 -26.0 81
09 17.03 СЗ 2 24 км 3/0
[]
-29.7 -33.4 70 -36 -36 опасность
обморожения
1024.1 1019.6
12 17.03 С 1 24 км 4/0
[Ac As Ci fib]
-29.4 -33.0 71 -31 -31 опасность
обморожения
1023.6 1019.1 -32.0 -26.0 43
15 17.03 ЮЗ 1 24 км 4/0
[]
-29.3 -33.2 69 -33 -32 опасность
обморожения
1023.4 1018.9
18 17.03 СВ 2 24 км ясно -25.0 -29.4 67 -30 -26 1023.2 1018.7 -32.0 -24.6
21 17.03 В 2 24 км ясно -21.1 -25.0 71 -27 -25 1021.8 1017.3
00 18.03 В 4 24 км ясно -21.6 -24.2 79 -31 -31 опасность
обморожения
1021.5 1017.0 -31.6 -20.6
03 18.03 В 5 24 км 1/1 1000 м
[]
-21.6 -24.6 77 -32 -32 опасность
обморожения
1021.1 1016.6
06 18.03 В 3 24 км 10/10 1000 м
[Sc]
-19.9 -22.8 78 -28 -28 1021.0 1016.5 -31.6 -19.9
09 18.03 В 3 24 км 10/10 1000 м
[]
-18.7 -21.4 79 -26 -26 1020.5 1016.1
12 18.03 В 2 24 км 10/10 600 м
[Sc]
-18.4 -21.0 80 -24 -24 1021.3 1016.9 -21.9 -19.9 43
15 18.03 ЮВ 4 24 км 10/10 600 м
[]
-18.1 -20.8 79 -26 -26 1020.9 1016.5
18 18.03 ЮВ 4 24 км 9/9 600 м
[Sc]
-16.2 -18.6 82 -24 -24 1020.6 1016.2 -25.0 -16.2
21 18.03 Ю 4 24 км 10/10 600 м
[]
-14.4 -20.1 62 -22 -22 1018.3 1013.9
00 19.03 Ю 5 9000 м слаб. снег 10/10 600 м
[Sc]
-15.7 -18.5 79 -25 -25 1015.4 1011.0 -19.9 -14.2 0.0 40
03 19.03 ЮЗ 4 9000 м 10/10 300 м
[]
-16.2 -18.6 82 -24 -24 1011.8 1007.4
06 19.03 ЮЗ 5 9000 м слаб. снег 10/10 300 м
[Sc]
-15.9 -18.4 81 -25 -25 1007.8 1003.5 -19.9 -14.2 0.2 43
09 19.03 ЮВ 2 9000 м 10/10 600 м
[]
-14.7 -17.0 83 -20 -20 1005.2 1000.9
12 19.03 СВ 5 1200 м слаб. снег н/о -14.9 -17.2 83 -23 -23 1005.1 1000.8 -16.3 -14.2 1 44
15 19.03 СВ 8 24 км 5/5 1000 м
[]
-15.7 -19.0 76 -27 -26 1008.8 1004.5
18 19.03 СВ 7 24 км позёмок {снег} 1/0
[Ac As Ci fib]
-15.6 -19.4 73 -26 -25 1013.5 1009.2 -16.5 -14.5 1 46
21 19.03 СВ 6 24 км 4/4 600 м
[]
-18.2 -22.2 71 -28 -28 1017.3 1012.9
00 20.03 СВ 2 24 км 4/0
[Ci fib]
-22.4 -26.5 69 -29 -29 1020.5 1016.1 -22.7 -14.9
03 20.03 С 2 24 км 3/0
[]
-24.6 -29.0 67 -30 -30 1021.1 1016.7
06 20.03 ЮВ 4 24 км ясно -25.0 -29.4 67 -35 -35 опасность
обморожения
1020.0 1015.6 -25.6 -14.5 161
09 20.03 Ю 5 24 км 10/0
[]
-21.8 -24.5 79 -32 -32 опасность
обморожения
1017.1 1012.7
12 20.03 Ю 9 16 км слаб. снег 10/1 1000 м
[Sc Ac As]
-17.8 -20.5 79 -30 -30 1011.8 1007.4 -25.6 -14.5 0.0 46
15 20.03 Ю 9 3200 м 8/8 1000 м
[]
-15.4 -18.2 79 -27 -27 1006.1 1001.7
18 20.03 Ю 7 800 м слаб. ливневой снег {метель} ясно -13.1 -15.6 81 -23 -22 1000.3 996.0 -25.6 -13.1 3 48
21 20.03 ЮЗ 3 11 км 10/10 300 м
[]
-10.6 -12.8 84 -16 -16 995.9 991.6
00 21.03 СЗ 5 16 км слаб. ливневой снег 9/8 1000 м
[Sc Ac As]
-9.9 -11.8 86 -18 -18 995.4 991.2 -25.3 -9.8 2 48
03 21.03 С 10 2400 м 5/0
[]
-12.2 -14.3 84 -23 -23 996.9 992.7
06 21.03 3200 м слаб. снег н/о -14.2 -16.6 82 -27 -27 1000.7 996.4 -25.3 -8.8 0.4 61
09 21.03 С 13 3200 м 6/6 600 м
[]
-15.7 -18.5 79 -29 -29 1005.5 1001.2
12 21.03 С 10 4800 м ледяные иглы {снег} 9/9 1500 м
[Sc]
-17.7 -20.6 78 -31 -31 опасность
обморожения
1009.3 1005.0 -18.7 -8.8 0.0 48
15 21.03 С 11 9000 м 10/10 1000 м
[]
-15.2 -18.1 78 -28 -28 1012.2 1007.9
18 21.03 С 12 9000 м ледяные иглы {снег} 6/0 2000 м
[Ac trans Ci fib]
-15.2 -18.5 76 -28 -28 1015.0 1010.7 -18.7 -14.2 0.0 48

 

Местоположение метеостанции Ранкин-Инлет (Нунавут, Канада): широта 62.82 долгота -92.11 высота над уровнем моря 31 м.

В архиве по умолчанию представлена погода в Ранкин-Инлете за последнюю неделю. Архивные данные за месяц целиком и за предыдущие месяцы, начиная с января 2011 года, Вы можете получить, выбрав интересующий диапазон дат из раскрывающегося списка и нажав кнопку "Ввод!".


*Определитесь, кто Вы:
робот инопланетянин человек

Внимание! Время в таблицах - всемирное. Для получения местного времени необходимо прибавить поправку, которая равна -6 ч.

Смотрите также архив погоды в соседних городах и на ближайших метеорологических станциях:

Погода в Арвиате (Нунавут, Канада) (217 км)
Погода в Арвиате (Нунавут, Канада) (217 км)
Погода в Аэропорту Арвиат (Нунавут, Канада) (218 км)
Погода в Бейкер Лейк (Нунавут, Канада) (255 км)
Погода в Бейкер-Лейке (Нунавут, Канада) (256 км)
Погода в Вейджер Бэй (Нунавут, Канада) (364 км)
Погода в Глеичене (Альберта, Канада) (419 км)
Погода в Корал-Харборе (Нунавут, Канада) (460 км)
Погода в Черчилле (Манитоба, Канада) (468 км)
Погода в Ки Лейк 2 (Саскачеван, Канада) (486 км)

Пояснения к столбцам:

Ветер - указаны скорость ветра в м/с - средняя за 10 мин, порывы в срок и между сроками (в фигурных скобках) и направление, откуда дует ветер: С - северный, СВ - северо-восточный, В - восточный, ЮВ - юго-восточный, Ю - южный, ЮЗ - юго-западный, З - западный, СЗ - северо-западный.
Видимость - горизонтальная дальность видимости в метрах или километрах. При видимости от 1 до 10 км при отсутствии осадков обычно наблюдается дымка, при ухудшении видимости до 1 км и менее - туман. В сухую погоду видимость может ухудшаться дымом, пылью или мглою.
Явления - указаны атмосферные явления, наблюдавшиеся в срок или в последний час перед сроком; фигурными скобками обозначены явления, наблюдавшиеся между сроками (за 1-3 часа до срока); квадратными скобками обозначены град или гололедные отложения с указанием их диаметра в мм.
Облачность - указаны через наклонную черту общая и нижняя облачность в баллах и высота нижней границы облаков в метрах; квадратными скобками обозначены формы облаков: Ci - перистые, Cs - перисто-слоистые, Cc - перисто-кучевые, Ac - высококучевые, As - высокослоистые, Sc - слоисто-кучевые, Ns - слоисто-дождевые, Cu - кучевые, Cb - кучево-дождевые. Подробнее классификацию облаков см. в Атласе облаков (PDF).
T - Температура воздуха - температура, измеренная на высоте 2 м над землей.
Td - Температура точки росы - температура, при понижении до которой содержащийся в воздухе водяной пар достигнет насыщения.
f - Относительная влажность воздуха - влажноcть воздуха, измеренная на высоте 2 м над землей.
Te - Эффективная температура - температура, которую ощущает одетый по сезону человек в тени. Характеристика душности погоды. При расчете учитывается влияние влажности воздуха и скорости ветра на теплоощущения человека.
Tes - Эффективная температура на солнце - температура, которую ощущает человек, с поправкой на солнечный нагрев. Характеристика знойности погоды. Зависит от высоты солнца над горизонтом, облачности и скорости ветра. Ночью, в пасмурную погоду, а также при ветре 12 м/с и более поправка равна нулю.
P - Атмосферное давление - приведенное к уровню моря атмосферное давление.
Po - Атмосферное давление - измеренное на уровне метеостанции атмосферное давление.
Tmin - Минимальная температура - минимум температуры воздуха на высоте 2 м над землей.
Tmax - Максимальная температура - максимум температуры воздуха на высоте 2 м над землей.
R - Количество осадков - Количество выпавших осадков за период времени, мм. При наведении курсора мыши на число - период времени, за который выпало указанное количество осадков.
R24 - Количество осадков - Количество выпавших осадков за 24 часа, мм.
S - Снежный покров - Высота снежного покрова, см. При наведении курсора мыши на число - состояние снежного покрова и степень покрытия местности в баллах.